Location: ??
(34.9170°N, 135.5016°E)
Time: 00:42:40
(UTC+00:00)

RS-15 - Pass Details

Date: 25 April 2021
Orbit: 1888 x 2157 km, 64.8° (Epoch: 12 May)

Event Time Altitude Azimuth Distance (km) Brightness Sun altitude
Rises 11:57:02 0° 283° (WNW) 5,347 11.3 -25.8°
Reaches altitude 10° 12:02:27 10° 304° (WNW) 4,398 10.9 -26.6°
Maximum altitude 12:08:51 16° 339° (NNW) 3,972 10.3 -27.6°
Drops below altitude 10° 12:15:27 10° 14° (NNE) 4,529 10.3 -28.5°
Sets 12:21:14 0° 35° (NE) 5,585 10.5 -29.4°
